Location: Hilton Head Island
(32.2163°N, 80.7526°W)
Time: 12:36:58
(UTC-05:00)

Vanguard 2 - Pass Details

Date: 24 February 2026
Orbit: 553 x 2896 km, 32.9° (Epoch: 6 March)

Event Time Altitude Azimuth Distance (km) Brightness Sun altitude
Exits shadow 04:37:43 74° 220° (SW) 1,172 8.1 -30.0°
Maximum altitude 04:38:19 80° 168° (SSE) 1,114 8.1 -29.8°
Drops below altitude 10° 04:43:58 10° 81° (E) 2,399 11.0 -28.7°
Sets 04:45:58 0° 81° (E) 3,153 11.9 -28.2°
